Powrót do katalogu

ONEWEB-0194

AktywnyŁącznośćPO
NORAD 48237·PAYLOAD·🇬🇧 United Kingdom

Wystrzelony Apr 25, 2021 z Vostochny Cosmodrome

Loading…

Następne Przeloty (najbliższe 24 godziny)

TLE

ŚwieżeSource: CelesTrak SupGP

Epoka: Sep 14, 2026, 17:49 UTC

1 48237C 21031AD  26257.74250417 -.00000489  00000+0 -13215-2 0  2576
2 48237  87.8899 271.8490 0002101  88.3553  12.7109 13.14505891    10

Śledź ONEWEB-0194 w czasie rzeczywistym z AllMySat

Download on the App Store